Regional Weather Roundup
Issued by NWS Little Rock, AR

Home | Current Version | Previous Version | Graphics & Text | Print | Product List | Glossary On
Versions: 1 2 3 4 5 6 7 8 9 10 11 12 13 14 15 16 17 18 19 20 21 22 23 24 25 26 27 28 29 30 31 32 33 34 35 36 37 38 39 40 41 42 43 44 45 46 47 48 49 50
855
ASUS44 KLZK 220205
RWRLZK

WEATHER ROUNDUP FOR ARKANSAS
NATIONAL WEATHER SERVICE LITTLE ROCK AR
900 PM CDT MON AUG 21 2017

NOTE: "FAIR" INDICATES FEW OR NO CLOUDS BELOW 12,000 FEET WITH NO
SIGNIFICANT WEATHER AND/OR OBSTRUCTIONS TO VISIBILITY.

ARZ001-003-010-029-220300-
NORTHWEST ARKANSAS

CITY           SKY/WX    TMP DP  RH WIND       PRES   REMARKS
FAYETTEVILLE   CLEAR     78  76  93 S3        30.07S
FORT SMITH     CLEAR     84  76  76 S5        30.03R HX  93
HARRISON       CLEAR     77  73  87 S6        30.09R
BENTONVILLE    CLEAR     81  72  74 S6        30.07S
ROGERS         CLEAR     80  73  79 S7        30.08R
HIGHFILL       CLEAR     80  75  84 S6        30.07R HX  85
SPRINGDALE     CLEAR     81  75  83 S6        30.09R HX  86
$$

ARZ004-005-016-220300-
NORTH CENTRAL ARKANSAS

CITY           SKY/WX    TMP DP  RH WIND       PRES   REMARKS
FLIPPIN        CLEAR     82  70  65 CALM      30.04S HX  86
MTN HOME       CLEAR     80  74  81 SW6       30.06R HX  85
$$

ARZ040-041-220300-
WEST CENTRAL ARKANSAS

CITY           SKY/WX    TMP DP  RH WIND       PRES   REMARKS
MENA           CLEAR     79  79 100 CALM      30.10R
MOUNT IDA      CLEAR     81  75  82 CALM      30.07R HX  87
$$

ARZ009-017-025-026-028-220300-
NORTHEAST ARKANSAS

CITY           SKY/WX    TMP DP  RH WIND       PRES   REMARKS
CORNING        FAIR      81  81 100 S6        30.06R HX  91
JONESBORO      CLEAR     80  78  94 CALM      30.07R HX  88
NEWPORT        CLEAR     80  76  87 S7        30.07R HX  86
WALNUT RIDGE   CLEAR     81  73  78 S8        30.06R HX  85
BLYTHEVILLE    PTCLDY    84  77  79 S3        30.08R HX  94
$$

ARZ022-023-033-042-044-220300-
CENTRAL ARKANSAS

CITY           SKY/WX    TMP DP  RH WIND       PRES   REMARKS
LITTLE ROCK    CLEAR     81  77  88 S7        30.07R HX  88
N LITTLE ROCK    N/A     83  75  75 CALM      30.08R HX  91
JACKSONVILLE   CLEAR     84  76  78 S6        30.07R HX  92
CONWAY           N/A     81  79  94 S5        30.05R HX  89
SEARCY         CLEAR     80  79  96 CALM      30.08R HX  88
HOT SPRINGS    CLEAR     84  76  76 CALM      30.08R HX  93
RUSSELLVILLE   CLEAR     80  77  90 CALM      30.05R HX  87
CLINTON        FAIR      79  77  94 CALM      30.07R
$$

ARZ036-220300-
EAST ARKANSAS

CITY           SKY/WX    TMP DP  RH WIND       PRES   REMARKS
WEST MEMPHIS   MOCLDY    82  79  90 S3        30.08R HX  92
$$

ARZ050-053-066-070-073-220300-
SOUTHWEST ARKANSAS

CITY           SKY/WX    TMP DP  RH WIND       PRES   REMARKS
ARKADELPHIA    FAIR      80  79  96 CALM      30.07R HX  88
CAMDEN         MOCLDY    81  75  83 CALM      30.07R HX  86
TEXARKANA      CLEAR     80  76  87 SE5       30.07R HX  86
EL DORADO      CLEAR     82  76  81 SE5       30.09R HX  89
DE QUEEN       CLEAR     81  79  94 CALM      30.04R HX  90
$$

ARZ056-057-069-220300-
SOUTHEAST ARKANSAS

CITY           SKY/WX    TMP DP  RH WIND       PRES   REMARKS
PINE BLUFF     CLEAR     81  77  88 CALM      30.08R HX  88
MONTICELLO     PTCLDY    83  73  72 CALM      30.09R HX  89

$$






USA.gov is the U.S. government's official web portal to all federal, state and local government web resources and services.